Time,TemperatureF,DewpointF,PressureIn,WindDirection,WindDirectionDegrees,WindSpeedMPH,WindSpeedGustMPH,Humidity,HourlyPrecipIn,Conditions,Clouds,dailyrainin,SoftwareType,DateUTC
2013-06-26 00:00:00,57.6,51.8,29.80,NW,315,2.0,2.0,81,0.00,,,0.00,Wunderground v.1.15,2013-06-26 07:00:00,
2013-06-26 00:01:00,57.4,51.9,29.80,NW,315,2.0,2.0,82,0.00,,,0.00,Wunderground v.1.15,2013-06-26 07:01:00,
2013-06-26 00:04:00,57.0,51.9,29.80,NW,315,2.0,3.0,83,0.00,,,0.00,Wunderground v.1.15,2013-06-26 07:04:00,
2013-06-26 00:09:00,57.0,51.9,29.80,NW,315,1.0,3.0,83,0.00,,,0.00,Wunderground v.1.15,2013-06-26 07:09:00,
2013-06-26 00:10:00,57.1,52.0,29.80,NW,315,1.0,3.0,83,0.00,,,0.00,Wunderground v.1.15,2013-06-26 07:10:00,
2013-06-26 00:11:00,57.2,51.8,29.80,NW,315,0.0,1.0,82,0.00,,,0.00,Wunderground v.1.15,2013-06-26 07:11:00,
2013-06-26 00:12:00,57.3,51.9,29.80,NW,315,1.0,1.0,82,0.00,,,0.00,Wunderground v.1.15,2013-06-26 07:12:00,
2013-06-26 00:14:00,57.6,52.1,29.80,NW,315,0.0,1.0,82,0.00,,,0.00,Wunderground v.1.15,2013-06-26 07:14:00,
2013-06-26 00:18:00,57.6,51.8,29.80,NW,315,1.0,1.0,81,0.00,,,0.00,Wunderground v.1.15,2013-06-26 07:18:00,
2013-06-26 00:19:00,57.7,51.9,29.80,NW,315,0.0,1.0,81,0.00,,,0.00,Wunderground v.1.15,2013-06-26 07:19:00,
2013-06-26 00:20:00,57.7,51.9,29.80,NW,315,1.0,1.0,81,0.00,,,0.00,Wunderground v.1.15,2013-06-26 07:20:00,
2013-06-26 00:21:00,57.7,51.9,29.80,NW,315,1.0,1.0,81,0.00,,,0.00,Wunderground v.1.15,2013-06-26 07:21:00,
2013-06-26 00:25:00,57.8,51.7,29.80,NW,315,0.0,1.0,80,0.00,,,0.00,Wunderground v.1.15,2013-06-26 07:25:00,
2013-06-26 00:27:00,57.9,51.8,29.80,NW,315,0.0,1.0,80,0.00,,,0.00,Wunderground v.1.15,2013-06-26 07:27:00,
2013-06-26 00:29:00,57.9,51.8,29.80,NW,315,0.0,1.0,80,0.00,,,0.00,Wunderground v.1.15,2013-06-26 07:29:00,
2013-06-26 00:31:00,58.0,51.5,29.80,NW,315,0.0,0.0,79,0.00,,,0.00,Wunderground v.1.15,2013-06-26 07:31:00,
2013-06-26 00:33:00,58.1,51.6,29.80,NW,315,0.0,0.0,79,0.00,,,0.00,Wunderground v.1.15,2013-06-26 07:33:00,
2013-06-26 00:34:00,58.2,51.7,29.80,NW,315,0.0,0.0,79,0.00,,,0.00,Wunderground v.1.15,2013-06-26 07:34:00,
2013-06-26 00:36:00,58.3,51.5,29.80,NW,315,0.0,0.0,78,0.00,,,0.00,Wunderground v.1.15,2013-06-26 07:36:00,
2013-06-26 00:38:00,58.4,51.6,29.80,NW,315,0.0,0.0,78,0.00,,,0.00,Wunderground v.1.15,2013-06-26 07:38:00,
2013-06-26 00:39:00,58.4,51.6,29.80,NW,315,0.0,0.0,78,0.00,,,0.00,Wunderground v.1.15,2013-06-26 07:39:00,
2013-06-26 00:40:00,58.5,51.7,29.80,NW,315,0.0,0.0,78,0.00,,,0.00,Wunderground v.1.15,2013-06-26 07:40:00,
2013-06-26 00:41:00,58.5,51.3,29.80,NW,315,0.0,0.0,77,0.00,,,0.00,Wunderground v.1.15,2013-06-26 07:41:00,
2013-06-26 00:44:00,58.6,51.4,29.80,NW,315,0.0,0.0,77,0.00,,,0.00,Wunderground v.1.15,2013-06-26 07:44:00,
2013-06-26 00:48:00,58.6,51.4,29.80,NW,315,0.0,0.0,77,0.00,,,0.00,Wunderground v.1.15,2013-06-26 07:48:00,
2013-06-26 00:50:00,58.6,51.4,29.80,NW,315,0.0,0.0,77,0.00,,,0.00,Wunderground v.1.15,2013-06-26 07:50:00,
2013-06-26 00:51:00,58.6,51.4,29.80,NW,315,0.0,0.0,77,0.00,,,0.00,Wunderground v.1.15,2013-06-26 07:51:00,
2013-06-26 00:55:00,58.6,51.1,29.81,NW,315,0.0,0.0,76,0.00,,,0.00,Wunderground v.1.15,2013-06-26 07:55:00,
2013-06-26 00:58:00,58.4,51.2,29.81,NW,315,1.0,1.0,77,0.00,,,0.00,Wunderground v.1.15,2013-06-26 07:58:00,
2013-06-26 00:59:00,58.4,51.2,29.81,NW,315,2.0,2.0,77,0.00,,,0.00,Wunderground v.1.15,2013-06-26 07:59:00,
2013-06-26 01:02:00,58.0,50.8,29.81,NW,315,2.0,2.0,77,0.00,,,0.00,Wunderground v.1.15,2013-06-26 08:02:00,
2013-06-26 01:04:00,57.8,51.0,29.81,NW,315,1.0,2.0,78,0.00,,,0.00,Wunderground v.1.15,2013-06-26 08:04:00,
2013-06-26 01:05:00,57.8,51.0,29.81,NW,315,1.0,2.0,78,0.00,,,0.00,Wunderground v.1.15,2013-06-26 08:05:00,
2013-06-26 01:08:00,57.6,50.8,29.81,NW,315,1.0,2.0,78,0.00,,,0.00,Wunderground v.1.15,2013-06-26 08:08:00,
2013-06-26 01:09:00,57.5,50.7,29.81,NW,315,2.0,2.0,78,0.00,,,0.00,Wunderground v.1.15,2013-06-26 08:09:00,
2013-06-26 01:10:00,57.3,50.5,29.81,NW,315,2.0,2.0,78,0.00,,,0.00,Wunderground v.1.15,2013-06-26 08:10:00,
2013-06-26 01:12:00,57.2,50.7,29.81,NW,315,1.0,1.0,79,0.00,,,0.00,Wunderground v.1.15,2013-06-26 08:12:00,
2013-06-26 01:14:00,57.1,50.6,29.81,NW,315,1.0,2.0,79,0.00,,,0.00,Wunderground v.1.15,2013-06-26 08:14:00,
2013-06-26 01:17:00,57.0,50.5,29.81,NW,315,1.0,2.0,79,0.00,,,0.00,Wunderground v.1.15,2013-06-26 08:17:00,
2013-06-26 01:18:00,56.9,50.5,29.81,NW,315,1.0,2.0,79,0.00,,,0.00,Wunderground v.1.15,2013-06-26 08:18:00,
2013-06-26 01:21:00,56.5,50.1,29.81,NW,315,0.0,1.0,79,0.00,,,0.00,Wunderground v.1.15,2013-06-26 08:21:00,
2013-06-26 01:23:00,56.3,50.2,29.82,NW,315,0.0,1.0,80,0.00,,,0.00,Wunderground v.1.15,2013-06-26 08:23:00,
2013-06-26 01:24:00,56.2,50.1,29.82,NW,315,2.0,2.0,80,0.00,,,0.00,Wunderground v.1.15,2013-06-26 08:24:00,
2013-06-26 01:25:00,56.2,50.1,29.82,NW,315,2.0,2.0,80,0.00,,,0.00,Wunderground v.1.15,2013-06-26 08:25:00,
2013-06-26 01:30:00,56.6,50.5,29.82,NW,315,2.0,2.0,80,0.00,,,0.00,Wunderground v.1.15,2013-06-26 08:30:00,
2013-06-26 01:31:00,56.7,50.6,29.82,NW,315,2.0,2.0,80,0.00,,,0.00,Wunderground v.1.15,2013-06-26 08:31:00,
2013-06-26 01:33:00,56.6,50.5,29.82,NW,315,2.0,3.0,80,0.00,,,0.00,Wunderground v.1.15,2013-06-26 08:33:00,
2013-06-26 01:34:00,56.7,50.6,29.82,NW,315,1.0,3.0,80,0.00,,,0.00,Wunderground v.1.15,2013-06-26 08:34:00,
2013-06-26 01:38:00,56.7,50.6,29.82,NW,315,0.0,3.0,80,0.00,,,0.00,Wunderground v.1.15,2013-06-26 08:38:00,
2013-06-26 01:39:00,56.7,51.3,29.82,NW,315,0.0,3.0,82,0.00,,,0.00,Wunderground v.1.15,2013-06-26 08:39:00,
2013-06-26 01:40:00,56.6,51.2,29.82,NW,315,1.0,3.0,82,0.00,,,0.00,Wunderground v.1.15,2013-06-26 08:40:00,
2013-06-26 01:41:00,56.4,50.6,29.82,NW,315,2.0,2.0,81,0.00,,,0.00,Wunderground v.1.15,2013-06-26 08:41:00,
2013-06-26 01:44:00,55.4,49.7,29.83,NW,315,3.0,3.0,81,0.00,,,0.00,Wunderground v.1.15,2013-06-26 08:44:00,
2013-06-26 01:45:00,55.1,49.7,29.83,NW,315,2.0,3.0,82,0.00,,,0.00,Wunderground v.1.15,2013-06-26 08:45:00,
2013-06-26 01:46:00,54.8,49.4,29.83,NW,315,2.0,3.0,82,0.00,,,0.00,Wunderground v.1.15,2013-06-26 08:46:00,
2013-06-26 01:50:00,54.4,49.7,29.83,NW,315,1.0,3.0,84,0.00,,,0.00,Wunderground v.1.15,2013-06-26 08:50:00,
2013-06-26 01:51:00,54.4,49.3,29.83,NW,315,1.0,2.0,83,0.00,,,0.00,Wunderground v.1.15,2013-06-26 08:51:00,
2013-06-26 01:56:00,53.7,49.0,29.83,NW,315,2.0,3.0,84,0.00,,,0.00,Wunderground v.1.15,2013-06-26 08:56:00,
2013-06-26 02:01:00,54.4,50.0,29.83,NW,315,1.0,2.0,85,0.00,,,0.00,Wunderground v.1.15,2013-06-26 09:01:00,
2013-06-26 02:06:00,54.2,49.1,29.83,NW,315,2.0,3.0,83,0.00,,,0.00,Wunderground v.1.15,2013-06-26 09:06:00,
2013-06-26 02:11:00,54.5,49.8,29.83,NW,315,1.0,2.0,84,0.00,,,0.00,Wunderground v.1.15,2013-06-26 09:11:00,
2013-06-26 02:16:00,55.0,49.9,29.83,NW,315,1.0,2.0,83,0.00,,,0.00,Wunderground v.1.15,2013-06-26 09:16:00,
2013-06-26 02:21:00,54.2,48.8,29.83,NW,315,1.0,2.0,82,0.00,,,0.00,Wunderground v.1.15,2013-06-26 09:21:00,
2013-06-26 02:26:00,54.3,49.2,29.83,NW,315,0.0,2.0,83,0.00,,,0.00,Wunderground v.1.15,2013-06-26 09:26:00,
2013-06-26 02:31:00,53.6,48.6,29.83,NW,315,1.0,2.0,83,0.00,,,0.00,Wunderground v.1.15,2013-06-26 09:31:00,
2013-06-26 02:36:00,52.6,47.9,29.83,NW,315,1.0,3.0,84,0.00,,,0.00,Wunderground v.1.15,2013-06-26 09:36:00,
2013-06-26 02:41:00,52.1,48.0,29.83,NW,315,3.0,3.0,86,0.00,,,0.00,Wunderground v.1.15,2013-06-26 09:41:00,
2013-06-26 02:46:00,53.4,50.2,29.84,NW,315,2.0,4.0,89,0.00,,,0.00,Wunderground v.1.15,2013-06-26 09:46:00,
2013-06-26 02:51:00,54.2,50.7,29.84,NW,315,1.0,2.0,88,0.00,,,0.00,Wunderground v.1.15,2013-06-26 09:51:00,
2013-06-26 02:56:00,55.1,51.9,29.84,NW,315,1.0,2.0,89,0.00,,,0.00,Wunderground v.1.15,2013-06-26 09:56:00,
2013-06-26 03:01:00,55.7,52.5,29.84,NW,315,2.0,2.0,89,0.00,,,0.00,Wunderground v.1.15,2013-06-26 10:01:00,
2013-06-26 03:06:00,55.2,52.3,29.85,NW,315,0.0,3.0,90,0.00,,,0.00,Wunderground v.1.15,2013-06-26 10:06:00,
2013-06-26 03:11:00,54.0,50.2,29.85,NW,315,0.0,1.0,87,0.00,,,0.00,Wunderground v.1.15,2013-06-26 10:11:00,
2013-06-26 03:16:00,52.6,48.8,29.85,NW,315,1.0,2.0,87,0.00,,,0.00,Wunderground v.1.15,2013-06-26 10:16:00,
2013-06-26 03:21:00,52.0,48.3,29.85,NNW,342,2.0,3.0,87,0.00,,,0.00,Wunderground v.1.15,2013-06-26 10:21:00,
2013-06-26 03:26:00,52.3,48.5,29.85,NNW,342,2.0,3.0,87,0.00,,,0.00,Wunderground v.1.15,2013-06-26 10:26:00,
2013-06-26 03:31:00,52.2,48.4,29.84,NNW,345,3.0,4.0,87,0.00,,,0.00,Wunderground v.1.15,2013-06-26 10:31:00,
2013-06-26 03:36:00,52.5,49.0,29.84,NNW,347,3.0,4.0,88,0.00,,,0.00,Wunderground v.1.15,2013-06-26 10:36:00,
2013-06-26 03:41:00,52.9,49.4,29.84,NNW,348,2.0,3.0,88,0.00,,,0.00,Wunderground v.1.15,2013-06-26 10:41:00,
2013-06-26 03:46:00,53.3,50.1,29.84,NNW,348,2.0,5.0,89,0.00,,,0.00,Wunderground v.1.15,2013-06-26 10:46:00,
2013-06-26 03:51:00,53.3,49.8,29.84,NNW,348,2.0,3.0,88,0.00,,,0.00,Wunderground v.1.15,2013-06-26 10:51:00,
2013-06-26 03:56:00,53.4,50.2,29.84,NNW,348,3.0,5.0,89,0.00,,,0.00,Wunderground v.1.15,2013-06-26 10:56:00,
2013-06-26 04:01:00,54.3,51.4,29.84,NNW,348,4.0,4.0,90,0.00,,,0.00,Wunderground v.1.15,2013-06-26 11:01:00,
2013-06-26 04:06:00,54.7,51.5,29.85,NNW,348,2.0,4.0,89,0.00,,,0.00,Wunderground v.1.15,2013-06-26 11:06:00,
2013-06-26 04:11:00,55.5,52.9,29.85,NNW,348,2.0,3.0,91,0.00,,,0.00,Wunderground v.1.15,2013-06-26 11:11:00,
2013-06-26 04:16:00,55.5,52.6,29.85,NNW,348,1.0,3.0,90,0.00,,,0.00,Wunderground v.1.15,2013-06-26 11:16:00,
2013-06-26 04:21:00,55.3,52.4,29.85,NNW,348,1.0,1.0,90,0.00,,,0.00,Wunderground v.1.15,2013-06-26 11:21:00,
2013-06-26 04:26:00,54.6,51.7,29.85,NNW,348,0.0,2.0,90,0.00,,,0.00,Wunderground v.1.15,2013-06-26 11:26:00,
2013-06-26 04:31:00,54.6,52.3,29.86,NNW,348,0.0,2.0,92,0.00,,,0.00,Wunderground v.1.15,2013-06-26 11:31:00,
2013-06-26 04:36:00,53.9,51.3,29.86,NNW,348,2.0,3.0,91,0.00,,,0.00,Wunderground v.1.15,2013-06-26 11:36:00,
2013-06-26 04:41:00,53.3,50.7,29.87,NNW,348,1.0,2.0,91,0.00,,,0.00,Wunderground v.1.15,2013-06-26 11:41:00,
2013-06-26 04:46:00,53.0,50.1,29.87,NNW,348,0.0,2.0,90,0.00,,,0.00,Wunderground v.1.15,2013-06-26 11:46:00,
2013-06-26 04:51:00,53.0,50.4,29.86,NNW,348,0.0,1.0,91,0.00,,,0.00,Wunderground v.1.15,2013-06-26 11:51:00,
2013-06-26 04:56:00,52.4,49.6,29.87,NNW,348,0.0,1.0,90,0.00,,,0.00,Wunderground v.1.15,2013-06-26 11:56:00,
2013-06-26 05:01:00,51.9,49.1,29.86,NNW,348,0.0,0.0,90,0.00,,,0.00,Wunderground v.1.15,2013-06-26 12:01:00,
2013-06-26 05:06:00,51.8,49.3,29.87,NNW,348,0.0,0.0,91,0.00,,,0.00,Wunderground v.1.15,2013-06-26 12:06:00,
2013-06-26 05:11:00,51.6,48.8,29.87,NNW,348,0.0,0.0,90,0.00,,,0.00,Wunderground v.1.15,2013-06-26 12:11:00,
2013-06-26 05:16:00,51.2,48.4,29.88,NNW,348,0.0,1.0,90,0.00,,,0.00,Wunderground v.1.15,2013-06-26 12:16:00,
2013-06-26 05:21:00,50.9,48.1,29.88,NNW,348,0.0,0.0,90,0.00,,,0.00,Wunderground v.1.15,2013-06-26 12:21:00,
2013-06-26 05:26:00,50.8,48.3,29.87,NNW,348,0.0,0.0,91,0.00,,,0.00,Wunderground v.1.15,2013-06-26 12:26:00,
2013-06-26 05:31:00,50.8,48.3,29.87,NNW,348,0.0,0.0,91,0.00,,,0.00,Wunderground v.1.15,2013-06-26 12:31:00,
2013-06-26 05:36:00,51.0,48.5,29.87,NNW,348,0.0,0.0,91,0.00,,,0.00,Wunderground v.1.15,2013-06-26 12:36:00,
2013-06-26 05:41:00,51.1,48.6,29.87,NNW,348,0.0,0.0,91,0.00,,,0.00,Wunderground v.1.15,2013-06-26 12:41:00,
2013-06-26 05:46:00,51.1,48.6,29.88,NNW,348,4.0,4.0,91,0.00,,,0.00,Wunderground v.1.15,2013-06-26 12:46:00,
2013-06-26 05:51:00,51.3,49.1,29.88,ENE,75,5.0,7.0,92,0.00,,,0.00,Wunderground v.1.15,2013-06-26 12:51:00,
2013-06-26 05:56:00,51.4,49.2,29.88,East,79,5.0,7.0,92,0.00,,,0.00,Wunderground v.1.15,2013-06-26 12:56:00,
2013-06-26 06:01:00,51.4,49.2,29.88,East,90,5.0,5.0,92,0.00,,,0.00,Wunderground v.1.15,2013-06-26 13:01:00,
2013-06-26 06:06:00,51.5,49.3,29.88,East,90,4.0,6.0,92,0.00,,,0.00,Wunderground v.1.15,2013-06-26 13:06:00,
2013-06-26 06:11:00,51.6,49.4,29.88,East,90,4.0,5.0,92,0.00,,,0.00,Wunderground v.1.15,2013-06-26 13:11:00,
2013-06-26 06:16:00,51.8,49.5,29.88,East,90,5.0,6.0,92,0.00,,,0.00,Wunderground v.1.15,2013-06-26 13:16:00,
2013-06-26 06:21:00,51.9,49.6,29.89,East,90,5.0,6.0,92,0.00,,,0.00,Wunderground v.1.15,2013-06-26 13:21:00,
2013-06-26 06:26:00,52.1,49.8,29.89,East,90,2.0,6.0,92,0.00,,,0.00,Wunderground v.1.15,2013-06-26 13:26:00,
2013-06-26 06:31:00,52.4,50.1,29.88,East,90,4.0,4.0,92,0.00,,,0.00,Wunderground v.1.15,2013-06-26 13:31:00,
2013-06-26 06:36:00,52.7,50.4,29.89,East,90,2.0,4.0,92,0.00,,,0.00,Wunderground v.1.15,2013-06-26 13:36:00,
2013-06-26 06:41:00,53.0,50.7,29.89,East,90,2.0,2.0,92,0.00,,,0.00,Wunderground v.1.15,2013-06-26 13:41:00,
2013-06-26 06:46:00,53.3,50.7,29.89,East,90,2.0,2.0,91,0.00,,,0.00,Wunderground v.1.15,2013-06-26 13:46:00,
2013-06-26 06:51:00,53.5,50.9,29.89,East,90,2.0,2.0,91,0.00,,,0.00,Wunderground v.1.15,2013-06-26 13:51:00,
2013-06-26 06:56:00,53.8,51.2,29.89,East,90,4.0,4.0,91,0.00,,,0.00,Wunderground v.1.15,2013-06-26 13:56:00,
2013-06-26 07:01:00,54.2,51.6,29.89,East,90,1.0,2.0,91,0.00,,,0.00,Wunderground v.1.15,2013-06-26 14:01:00,
2013-06-26 07:06:00,54.7,52.1,29.89,East,90,0.0,2.0,91,0.00,,,0.00,Wunderground v.1.15,2013-06-26 14:06:00,
2013-06-26 07:11:00,55.2,52.3,29.89,East,90,0.0,0.0,90,0.00,,,0.00,Wunderground v.1.15,2013-06-26 14:11:00,
2013-06-26 07:16:00,55.6,52.7,29.90,East,90,0.0,0.0,90,0.00,,,0.00,Wunderground v.1.15,2013-06-26 14:16:00,
2013-06-26 07:21:00,56.1,52.9,29.90,East,90,0.0,1.0,89,0.00,,,0.00,Wunderground v.1.15,2013-06-26 14:21:00,
2013-06-26 07:26:00,56.1,52.9,29.90,East,90,0.0,1.0,89,0.00,,,0.00,Wunderground v.1.15,2013-06-26 14:26:00,
2013-06-26 07:31:00,56.1,52.9,29.90,East,90,0.0,0.0,89,0.00,,,0.00,Wunderground v.1.15,2013-06-26 14:31:00,
2013-06-26 07:36:00,56.0,52.8,29.90,East,90,1.0,4.0,89,0.00,,,0.00,Wunderground v.1.15,2013-06-26 14:36:00,
2013-06-26 07:41:00,55.7,52.5,29.90,East,90,0.0,1.0,89,0.00,,,0.00,Wunderground v.1.15,2013-06-26 14:41:00,
2013-06-26 07:46:00,55.6,52.4,29.91,East,90,1.0,1.0,89,0.00,,,0.00,Wunderground v.1.15,2013-06-26 14:46:00,
2013-06-26 07:51:00,55.6,52.7,29.91,East,90,0.0,2.0,90,0.00,,,0.00,Wunderground v.1.15,2013-06-26 14:51:00,
2013-06-26 07:56:00,55.8,52.9,29.91,East,90,0.0,2.0,90,0.00,,,0.00,Wunderground v.1.15,2013-06-26 14:56:00,
2013-06-26 08:01:00,55.9,53.0,29.91,East,90,0.0,0.0,90,0.00,,,0.00,Wunderground v.1.15,2013-06-26 15:01:00,
2013-06-26 08:06:00,55.9,52.7,29.91,East,90,0.0,1.0,89,0.00,,,0.00,Wunderground v.1.15,2013-06-26 15:06:00,
2013-06-26 08:11:00,56.2,53.3,29.92,East,90,0.0,0.0,90,0.00,,,0.00,Wunderground v.1.15,2013-06-26 15:11:00,
2013-06-26 08:16:00,56.4,53.2,29.92,East,90,0.0,0.0,89,0.00,,,0.00,Wunderground v.1.15,2013-06-26 15:16:00,
2013-06-26 08:21:00,56.8,53.6,29.92,East,90,1.0,1.0,89,0.00,,,0.00,Wunderground v.1.15,2013-06-26 15:21:00,
2013-06-26 08:26:00,57.0,53.8,29.92,East,90,4.0,4.0,89,0.00,,,0.00,Wunderground v.1.15,2013-06-26 15:26:00,
2013-06-26 08:31:00,57.3,53.8,29.91,East,90,1.0,2.0,88,0.00,,,0.00,Wunderground v.1.15,2013-06-26 15:31:00,
2013-06-26 08:36:00,57.6,54.1,29.91,East,90,4.0,5.0,88,0.00,,,0.00,Wunderground v.1.15,2013-06-26 15:36:00,
2013-06-26 08:41:00,57.9,54.4,29.91,East,90,2.0,4.0,88,0.00,,,0.00,Wunderground v.1.15,2013-06-26 15:41:00,
2013-06-26 08:46:00,58.2,54.3,29.92,East,90,4.0,5.0,87,0.00,,,0.00,Wunderground v.1.15,2013-06-26 15:46:00,
2013-06-26 08:51:00,58.6,54.4,29.92,East,90,5.0,5.0,86,0.00,,,0.00,Wunderground v.1.15,2013-06-26 15:51:00,
2013-06-26 08:56:00,58.8,54.3,29.92,East,90,2.0,6.0,85,0.00,,,0.00,Wunderground v.1.15,2013-06-26 15:56:00,
2013-06-26 09:01:00,59.1,53.9,29.92,East,90,1.0,3.0,83,0.00,,,0.00,Wunderground v.1.15,2013-06-26 16:01:00,
2013-06-26 09:06:00,59.4,53.9,29.92,East,90,4.0,5.0,82,0.00,,,0.00,Wunderground v.1.15,2013-06-26 16:06:00,
2013-06-26 09:11:00,59.6,53.4,29.92,East,90,2.0,4.0,80,0.00,,,0.00,Wunderground v.1.15,2013-06-26 16:11:00,
2013-06-26 09:16:00,59.9,53.4,29.92,East,90,2.0,4.0,79,0.00,,,0.00,Wunderground v.1.15,2013-06-26 16:16:00,
2013-06-26 09:21:00,60.3,53.1,29.92,East,90,2.0,4.0,77,0.00,,,0.00,Wunderground v.1.15,2013-06-26 16:21:00,
2013-06-26 09:26:00,60.7,52.7,29.92,East,90,0.0,4.0,75,0.00,,,0.00,Wunderground v.1.15,2013-06-26 16:26:00,
2013-06-26 09:31:00,61.4,53.8,29.93,East,90,0.0,1.0,76,0.00,,,0.00,Wunderground v.1.15,2013-06-26 16:31:00,
2013-06-26 09:36:00,62.0,53.2,29.93,East,90,0.0,4.0,73,0.00,,,0.00,Wunderground v.1.15,2013-06-26 16:36:00,
2013-06-26 09:41:00,62.3,52.4,29.93,East,90,0.0,0.0,70,0.00,,,0.00,Wunderground v.1.15,2013-06-26 16:41:00,
2013-06-26 09:46:00,62.5,52.6,29.93,East,90,5.0,5.0,70,0.00,,,0.00,Wunderground v.1.15,2013-06-26 16:46:00,
2013-06-26 09:51:00,62.4,52.1,29.93,East,90,2.0,4.0,69,0.00,,,0.00,Wunderground v.1.15,2013-06-26 16:51:00,
2013-06-26 09:56:00,62.2,51.9,29.93,East,90,0.0,4.0,69,0.00,,,0.00,Wunderground v.1.15,2013-06-26 16:56:00,
2013-06-26 10:01:00,62.3,52.4,29.93,East,90,1.0,1.0,70,0.00,,,0.00,Wunderground v.1.15,2013-06-26 17:01:00,
2013-06-26 10:06:00,62.4,52.9,29.93,East,90,0.0,1.0,71,0.00,,,0.00,Wunderground v.1.15,2013-06-26 17:06:00,
2013-06-26 10:11:00,62.5,53.0,29.93,East,90,0.0,0.0,71,0.00,,,0.00,Wunderground v.1.15,2013-06-26 17:11:00,
2013-06-26 10:16:00,62.5,52.6,29.93,East,90,0.0,2.0,70,0.00,,,0.00,Wunderground v.1.15,2013-06-26 17:16:00,
2013-06-26 10:21:00,62.3,52.0,29.93,East,90,1.0,2.0,69,0.00,,,0.00,Wunderground v.1.15,2013-06-26 17:21:00,
2013-06-26 10:26:00,62.2,53.1,29.94,East,90,6.0,6.0,72,0.00,,,0.00,Wunderground v.1.15,2013-06-26 17:26:00,
2013-06-26 10:31:00,61.8,53.4,29.93,East,90,5.0,6.0,74,0.00,,,0.00,Wunderground v.1.15,2013-06-26 17:31:00,
2013-06-26 10:36:00,61.6,53.2,29.93,East,90,4.0,6.0,74,0.00,,,0.00,Wunderground v.1.15,2013-06-26 17:36:00,
2013-06-26 10:41:00,61.7,53.3,29.93,East,90,0.0,4.0,74,0.00,,,0.00,Wunderground v.1.15,2013-06-26 17:41:00,
2013-06-26 10:46:00,61.8,52.7,29.93,East,90,4.0,6.0,72,0.00,,,0.00,Wunderground v.1.15,2013-06-26 17:46:00,
2013-06-26 10:51:00,62.0,52.5,29.93,East,90,1.0,3.0,71,0.00,,,0.00,Wunderground v.1.15,2013-06-26 17:51:00,
2013-06-26 10:56:00,62.4,52.1,29.94,East,90,1.0,4.0,69,0.00,,,0.00,Wunderground v.1.15,2013-06-26 17:56:00,
2013-06-26 11:01:00,63.0,52.7,29.94,East,90,0.0,1.0,69,0.00,,,0.00,Wunderground v.1.15,2013-06-26 18:01:00,
2013-06-26 11:06:00,63.3,52.6,29.94,East,90,0.0,4.0,68,0.00,,,0.00,Wunderground v.1.15,2013-06-26 18:06:00,
2013-06-26 11:11:00,63.9,53.1,29.94,East,90,0.0,2.0,68,0.00,,,0.00,Wunderground v.1.15,2013-06-26 18:11:00,
2013-06-26 11:16:00,64.3,53.1,29.93,East,90,8.0,11.0,67,0.00,,,0.00,Wunderground v.1.15,2013-06-26 18:16:00,
2013-06-26 11:21:00,64.1,52.9,29.93,ESE,102,2.0,4.0,67,0.00,,,0.00,Wunderground v.1.15,2013-06-26 18:21:00,
2013-06-26 11:26:00,64.2,52.6,29.94,SE,132,12.0,12.0,66,0.00,,,0.00,Wunderground v.1.15,2013-06-26 18:26:00,
2013-06-26 11:31:00,63.8,52.6,29.94,SE,140,5.0,7.0,67,0.00,,,0.00,Wunderground v.1.15,2013-06-26 18:31:00,
2013-06-26 11:36:00,63.9,53.1,29.93,SE,138,2.0,9.0,68,0.00,,,0.00,Wunderground v.1.15,2013-06-26 18:36:00,
2013-06-26 11:41:00,64.2,53.0,29.94,SE,139,5.0,5.0,67,0.00,,,0.00,Wunderground v.1.15,2013-06-26 18:41:00,
2013-06-26 11:46:00,64.4,53.2,29.93,SE,137,1.0,7.0,67,0.00,,,0.00,Wunderground v.1.15,2013-06-26 18:46:00,
2013-06-26 11:51:00,64.5,52.9,29.93,SE,136,2.0,4.0,66,0.00,,,0.00,Wunderground v.1.15,2013-06-26 18:51:00,
2013-06-26 11:56:00,64.7,53.1,29.93,SE,138,1.0,8.0,66,0.00,,,0.00,Wunderground v.1.15,2013-06-26 18:56:00,
2013-06-26 12:01:00,65.1,53.5,29.94,SSE,153,6.0,6.0,66,0.00,,,0.00,Wunderground v.1.15,2013-06-26 19:01:00,
2013-06-26 12:06:00,65.4,53.3,29.94,SSE,155,4.0,7.0,65,0.00,,,0.00,Wunderground v.1.15,2013-06-26 19:06:00,
2013-06-26 12:11:00,65.9,53.8,29.94,SSE,155,0.0,2.0,65,0.00,,,0.00,Wunderground v.1.15,2013-06-26 19:11:00,
2013-06-26 12:16:00,66.0,53.9,29.94,SSE,155,4.0,5.0,65,0.00,,,0.00,Wunderground v.1.15,2013-06-26 19:16:00,
2013-06-26 12:21:00,65.9,53.8,29.94,SSE,150,1.0,4.0,65,0.00,,,0.00,Wunderground v.1.15,2013-06-26 19:21:00,
2013-06-26 12:26:00,66.0,54.3,29.94,SSE,150,0.0,4.0,66,0.00,,,0.00,Wunderground v.1.15,2013-06-26 19:26:00,
2013-06-26 12:31:00,66.4,55.1,29.95,SSE,157,5.0,6.0,67,0.00,,,0.00,Wunderground v.1.15,2013-06-26 19:31:00,
2013-06-26 12:36:00,66.8,54.7,29.95,SSE,159,2.0,7.0,65,0.00,,,0.00,Wunderground v.1.15,2013-06-26 19:36:00,
2013-06-26 12:41:00,67.4,54.8,29.95,SSW,198,8.0,8.0,64,0.00,,,0.00,Wunderground v.1.15,2013-06-26 19:41:00,
2013-06-26 12:46:00,67.9,54.0,29.95,SSW,211,5.0,11.0,61,0.00,,,0.00,Wunderground v.1.15,2013-06-26 19:46:00,
2013-06-26 12:51:00,68.0,54.0,29.95,SSW,211,5.0,5.0,61,0.00,,,0.00,Wunderground v.1.15,2013-06-26 19:51:00,
2013-06-26 12:56:00,68.2,53.8,29.95,SW,214,4.0,6.0,60,0.00,,,0.00,Wunderground v.1.15,2013-06-26 19:56:00,
2013-06-26 13:01:00,67.9,54.0,29.95,SW,230,3.0,5.0,61,0.00,,,0.00,Wunderground v.1.15,2013-06-26 20:01:00,
2013-06-26 13:06:00,68.0,53.6,29.95,WSW,238,4.0,9.0,60,0.00,,,0.00,Wunderground v.1.15,2013-06-26 20:06:00,
2013-06-26 13:11:00,67.9,53.0,29.94,SW,229,5.0,6.0,59,0.00,,,0.00,Wunderground v.1.15,2013-06-26 20:11:00,
2013-06-26 13:16:00,68.3,54.3,29.95,SW,216,5.0,10.0,61,0.00,,,0.00,Wunderground v.1.15,2013-06-26 20:16:00,
2013-06-26 13:21:00,68.6,54.2,29.94,SSW,198,7.0,8.0,60,0.00,,,0.00,Wunderground v.1.15,2013-06-26 20:21:00,
2013-06-26 13:26:00,68.6,53.7,29.95,SSW,196,9.0,10.0,59,0.00,,,0.00,Wunderground v.1.15,2013-06-26 20:26:00,
2013-06-26 13:31:00,68.6,53.2,29.95,SSW,196,2.0,6.0,58,0.00,,,0.00,Wunderground v.1.15,2013-06-26 20:31:00,
2013-06-26 13:36:00,69.1,53.7,29.95,SSW,201,7.0,7.0,58,0.00,,,0.00,Wunderground v.1.15,2013-06-26 20:36:00,
2013-06-26 13:41:00,68.9,53.5,29.95,SW,229,6.0,6.0,58,0.00,,,0.00,Wunderground v.1.15,2013-06-26 20:41:00,
2013-06-26 13:46:00,68.9,55.3,29.95,SW,223,5.0,9.0,62,0.00,,,0.00,Wunderground v.1.15,2013-06-26 20:46:00,
2013-06-26 13:51:00,69.2,54.7,29.95,South,181,7.0,7.0,60,0.00,,,0.00,Wunderground v.1.15,2013-06-26 20:51:00,
2013-06-26 13:56:00,69.1,53.7,29.95,SSW,192,4.0,10.0,58,0.00,,,0.00,Wunderground v.1.15,2013-06-26 20:56:00,
2013-06-26 14:01:00,69.0,54.1,29.95,SSW,213,5.0,5.0,59,0.00,,,0.00,Wunderground v.1.15,2013-06-26 21:01:00,
2013-06-26 14:06:00,69.4,54.0,29.95,South,179,10.0,10.0,58,0.00,,,0.00,Wunderground v.1.15,2013-06-26 21:06:00,
2013-06-26 14:11:00,69.3,53.9,29.95,SSW,205,4.0,6.0,58,0.00,,,0.00,Wunderground v.1.15,2013-06-26 21:11:00,
2013-06-26 14:16:00,69.3,53.9,29.95,SSW,205,5.0,8.0,58,0.00,,,0.00,Wunderground v.1.15,2013-06-26 21:16:00,
2013-06-26 14:21:00,69.6,55.1,29.95,South,180,7.0,11.0,60,0.00,,,0.00,Wunderground v.1.15,2013-06-26 21:21:00,
2013-06-26 14:26:00,69.7,54.3,29.95,SSW,200,3.0,9.0,58,0.00,,,0.00,Wunderground v.1.15,2013-06-26 21:26:00,
2013-06-26 14:31:00,69.6,53.7,29.95,SSW,200,6.0,6.0,57,0.00,,,0.00,Wunderground v.1.15,2013-06-26 21:31:00,
2013-06-26 14:36:00,69.7,54.3,29.95,SSW,196,9.0,9.0,58,0.00,,,0.00,Wunderground v.1.15,2013-06-26 21:36:00,
2013-06-26 14:41:00,69.4,54.0,29.95,SW,217,5.0,5.0,58,0.00,,,0.00,Wunderground v.1.15,2013-06-26 21:41:00,
2013-06-26 14:46:00,69.5,54.1,29.95,SW,217,1.0,5.0,58,0.00,,,0.00,Wunderground v.1.15,2013-06-26 21:46:00,
2013-06-26 14:51:00,69.3,52.9,29.95,SW,232,1.0,8.0,56,0.00,,,0.00,Wunderground v.1.15,2013-06-26 21:51:00,
2013-06-26 14:56:00,69.5,53.6,29.95,SW,232,0.0,4.0,57,0.00,,,0.00,Wunderground v.1.15,2013-06-26 21:56:00,
2013-06-26 15:01:00,69.8,53.9,29.96,SSW,204,6.0,11.0,57,0.00,,,0.00,Wunderground v.1.15,2013-06-26 22:01:00,
2013-06-26 15:06:00,69.8,54.4,29.95,SSW,200,5.0,9.0,58,0.00,,,0.00,Wunderground v.1.15,2013-06-26 22:06:00,
2013-06-26 15:11:00,70.0,54.1,29.95,South,182,6.0,12.0,57,0.00,,,0.00,Wunderground v.1.15,2013-06-26 22:11:00,
2013-06-26 15:16:00,70.1,54.6,29.95,South,178,5.0,11.0,58,0.00,,,0.00,Wunderground v.1.15,2013-06-26 22:16:00,
2013-06-26 15:21:00,70.7,55.2,29.95,SSW,198,9.0,13.0,58,0.00,,,0.00,Wunderground v.1.15,2013-06-26 22:21:00,
2013-06-26 15:26:00,70.3,53.9,29.95,SSW,192,5.0,10.0,56,0.00,,,0.00,Wunderground v.1.15,2013-06-26 22:26:00,
2013-06-26 15:31:00,70.4,54.0,29.95,South,190,1.0,5.0,56,0.00,,,0.00,Wunderground v.1.15,2013-06-26 22:31:00,
2013-06-26 15:36:00,70.6,54.1,29.94,SSW,198,2.0,11.0,56,0.00,,,0.00,Wunderground v.1.15,2013-06-26 22:36:00,
2013-06-26 15:41:00,70.5,54.0,29.95,SSW,197,4.0,5.0,56,0.00,,,0.00,Wunderground v.1.15,2013-06-26 22:41:00,
2013-06-26 15:46:00,70.8,55.3,29.95,South,188,8.0,10.0,58,0.00,,,0.00,Wunderground v.1.15,2013-06-26 22:46:00,
2013-06-26 15:51:00,70.8,54.3,29.94,South,184,7.0,7.0,56,0.00,,,0.00,Wunderground v.1.15,2013-06-26 22:51:00,
2013-06-26 15:56:00,70.6,53.6,29.94,South,184,4.0,9.0,55,0.00,,,0.00,Wunderground v.1.15,2013-06-26 22:56:00,
2013-06-26 16:01:00,70.7,55.2,29.94,South,177,7.0,9.0,58,0.00,,,0.00,Wunderground v.1.15,2013-06-26 23:01:00,
2013-06-26 16:06:00,70.7,56.1,29.95,South,178,9.0,11.0,60,0.00,,,0.00,Wunderground v.1.15,2013-06-26 23:06:00,
2013-06-26 16:11:00,70.3,54.8,29.94,South,171,10.0,10.0,58,0.00,,,0.00,Wunderground v.1.15,2013-06-26 23:11:00,
2013-06-26 16:16:00,70.0,55.5,29.94,SSW,198,7.0,12.0,60,0.00,,,0.00,Wunderground v.1.15,2013-06-26 23:16:00,
2013-06-26 16:21:00,70.1,55.6,29.94,South,186,8.0,13.0,60,0.00,,,0.00,Wunderground v.1.15,2013-06-26 23:21:00,
2013-06-26 16:26:00,70.0,55.0,29.94,South,186,6.0,14.0,59,0.00,,,0.00,Wunderground v.1.15,2013-06-26 23:26:00,
2013-06-26 16:31:00,70.3,55.3,29.95,South,182,8.0,14.0,59,0.00,,,0.00,Wunderground v.1.15,2013-06-26 23:31:00,
2013-06-26 16:36:00,70.3,55.3,29.94,SSW,205,6.0,12.0,59,0.00,,,0.00,Wunderground v.1.15,2013-06-26 23:36:00,
2013-06-26 16:41:00,70.4,54.9,29.94,South,175,8.0,15.0,58,0.00,,,0.00,Wunderground v.1.15,2013-06-26 23:41:00,
2013-06-26 16:46:00,70.4,55.4,29.94,South,183,10.0,14.0,59,0.00,,,0.00,Wunderground v.1.15,2013-06-26 23:46:00,
2013-06-26 16:51:00,70.4,54.9,29.95,South,180,8.0,14.0,58,0.00,,,0.00,Wunderground v.1.15,2013-06-26 23:51:00,
2013-06-26 16:56:00,70.6,56.0,29.95,SSW,200,8.0,13.0,60,0.00,,,0.00,Wunderground v.1.15,2013-06-26 23:56:00,
2013-06-26 17:01:00,70.7,55.2,29.95,South,187,6.0,8.0,58,0.00,,,0.00,Wunderground v.1.15,2013-06-27 00:01:00,
2013-06-26 17:06:00,70.8,55.3,29.95,SSW,197,8.0,10.0,58,0.00,,,0.00,Wunderground v.1.15,2013-06-27 00:06:00,
2013-06-26 17:11:00,70.9,54.9,29.95,South,189,6.0,7.0,57,0.00,,,0.00,Wunderground v.1.15,2013-06-27 00:11:00,
2013-06-26 17:15:00,70.9,54.9,29.95,SSW,194,2.0,9.0,57,0.00,,,0.00,Wunderground v.1.15,2013-06-27 00:15:00,
2013-06-26 17:20:00,70.9,56.3,29.95,South,180,5.0,9.0,60,0.00,,,0.00,Wunderground v.1.15,2013-06-27 00:20:00,
2013-06-26 17:25:00,70.9,55.9,29.95,SSE,165,4.0,8.0,59,0.00,,,0.00,Wunderground v.1.15,2013-06-27 00:25:00,
2013-06-26 17:30:00,71.0,55.5,29.95,SSE,153,6.0,8.0,58,0.00,,,0.00,Wunderground v.1.15,2013-06-27 00:30:00,
2013-06-26 17:35:00,71.7,54.7,29.95,SSW,203,6.0,9.0,55,0.00,,,0.00,Wunderground v.1.15,2013-06-27 00:35:00,
2013-06-26 17:40:00,71.9,55.8,29.95,SSE,165,9.0,11.0,57,0.00,,,0.00,Wunderground v.1.15,2013-06-27 00:40:00,
2013-06-26 17:45:00,71.6,56.0,29.95,SSW,197,4.0,11.0,58,0.00,,,0.00,Wunderground v.1.15,2013-06-27 00:45:00,
2013-06-26 17:50:00,71.6,56.0,29.94,South,190,8.0,13.0,58,0.00,,,0.00,Wunderground v.1.15,2013-06-27 00:50:00,
2013-06-26 17:55:00,71.9,55.3,29.94,South,180,6.0,14.0,56,0.00,,,0.00,Wunderground v.1.15,2013-06-27 00:55:00,
2013-06-26 18:00:00,72.0,55.9,29.94,South,178,10.0,14.0,57,0.00,,,0.00,Wunderground v.1.15,2013-06-27 01:00:00,
2013-06-26 18:05:00,72.1,55.5,29.94,South,174,11.0,14.0,56,0.00,,,0.00,Wunderground v.1.15,2013-06-27 01:05:00,
2013-06-26 18:10:00,72.2,55.1,29.94,South,182,6.0,14.0,55,0.00,,,0.00,Wunderground v.1.15,2013-06-27 01:10:00,
2013-06-26 18:15:00,72.1,55.0,29.94,South,180,5.0,10.0,55,0.00,,,0.00,Wunderground v.1.15,2013-06-27 01:15:00,
2013-06-26 18:20:00,72.2,55.6,29.94,South,170,8.0,10.0,56,0.00,,,0.00,Wunderground v.1.15,2013-06-27 01:20:00,
2013-06-26 18:25:00,72.1,56.0,29.95,South,178,5.0,11.0,57,0.00,,,0.00,Wunderground v.1.15,2013-06-27 01:25:00,
2013-06-26 18:30:00,72.1,57.0,29.95,South,175,4.0,11.0,59,0.00,,,0.00,Wunderground v.1.15,2013-06-27 01:30:00,
2013-06-26 18:35:00,71.8,56.2,29.95,South,177,5.0,12.0,58,0.00,,,0.00,Wunderground v.1.15,2013-06-27 01:35:00,
2013-06-26 18:40:00,71.6,56.5,29.95,SSE,168,5.0,12.0,59,0.00,,,0.00,Wunderground v.1.15,2013-06-27 01:40:00,
2013-06-26 18:45:00,71.7,57.1,29.95,South,171,5.0,7.0,60,0.00,,,0.00,Wunderground v.1.15,2013-06-27 01:45:00,
2013-06-26 18:50:00,71.8,56.2,29.95,South,181,6.0,10.0,58,0.00,,,0.00,Wunderground v.1.15,2013-06-27 01:50:00,
2013-06-26 18:55:00,71.5,56.4,29.95,South,169,8.0,9.0,59,0.00,,,0.00,Wunderground v.1.15,2013-06-27 01:55:00,
2013-06-26 19:00:00,71.2,55.7,29.95,South,176,8.0,10.0,58,0.00,,,0.00,Wunderground v.1.15,2013-06-27 02:00:00,
2013-06-26 19:05:00,71.0,55.5,29.95,South,178,7.0,10.0,58,0.00,,,0.00,Wunderground v.1.15,2013-06-27 02:05:00,
2013-06-26 19:10:00,70.8,56.2,29.95,South,180,7.0,10.0,60,0.00,,,0.00,Wunderground v.1.15,2013-06-27 02:10:00,
2013-06-26 19:15:00,70.3,56.7,29.95,South,177,6.0,8.0,62,0.00,,,0.00,Wunderground v.1.15,2013-06-27 02:15:00,
2013-06-26 19:20:00,69.8,56.6,29.95,South,174,4.0,8.0,63,0.00,,,0.00,Wunderground v.1.15,2013-06-27 02:20:00,
2013-06-26 19:25:00,69.6,56.9,29.95,SSE,167,2.0,5.0,64,0.00,,,0.00,Wunderground v.1.15,2013-06-27 02:25:00,
2013-06-26 19:30:00,69.6,56.9,29.95,SSE,161,5.0,5.0,64,0.00,,,0.00,Wunderground v.1.15,2013-06-27 02:30:00,
2013-06-26 19:35:00,69.5,56.8,29.96,SSE,157,2.0,7.0,64,0.00,,,0.00,Wunderground v.1.15,2013-06-27 02:35:00,
2013-06-26 19:40:00,69.4,56.7,29.95,SSE,153,5.0,7.0,64,0.00,,,0.00,Wunderground v.1.15,2013-06-27 02:40:00,
2013-06-26 19:46:00,69.4,56.7,29.96,SSE,157,4.0,6.0,64,0.00,,,0.00,Wunderground v.1.15,2013-06-27 02:46:00,
2013-06-26 19:50:00,69.3,56.6,29.96,SSE,161,5.0,6.0,64,0.00,,,0.00,Wunderground v.1.15,2013-06-27 02:50:00,
2013-06-26 19:55:00,69.0,56.7,29.96,South,175,7.0,8.0,65,0.00,,,0.00,Wunderground v.1.15,2013-06-27 02:55:00,
2013-06-26 20:00:00,68.6,57.2,29.96,South,180,11.0,11.0,67,0.00,,,0.00,Wunderground v.1.15,2013-06-27 03:00:00,
2013-06-26 20:05:00,68.3,57.3,29.97,South,182,7.0,12.0,68,0.00,,,0.00,Wunderground v.1.15,2013-06-27 03:05:00,
2013-06-26 20:11:00,68.2,57.6,29.97,South,180,7.0,12.0,69,0.00,,,0.00,Wunderground v.1.15,2013-06-27 03:11:00,
2013-06-26 20:16:00,68.0,57.8,29.97,SSW,194,6.0,9.0,70,0.00,,,0.00,Wunderground v.1.15,2013-06-27 03:16:00,
2013-06-26 20:21:00,67.8,58.1,29.97,South,190,5.0,9.0,71,0.00,,,0.00,Wunderground v.1.15,2013-06-27 03:21:00,
2013-06-26 20:26:00,67.5,57.8,29.97,South,184,4.0,9.0,71,0.00,,,0.00,Wunderground v.1.15,2013-06-27 03:26:00,
2013-06-26 20:31:00,67.4,58.1,29.97,South,171,4.0,9.0,72,0.00,,,0.00,Wunderground v.1.15,2013-06-27 03:31:00,
2013-06-26 20:36:00,67.0,58.1,29.97,SSE,155,5.0,6.0,73,0.00,,,0.00,Wunderground v.1.15,2013-06-27 03:36:00,
2013-06-26 20:41:00,66.8,57.9,29.97,SE,135,4.0,6.0,73,0.00,,,0.00,Wunderground v.1.15,2013-06-27 03:41:00,
2013-06-26 20:46:00,66.7,58.1,29.98,ESE,121,2.0,6.0,74,0.00,,,0.00,Wunderground v.1.15,2013-06-27 03:46:00,
2013-06-26 20:51:00,66.5,58.0,29.98,SE,125,4.0,6.0,74,0.00,,,0.00,Wunderground v.1.15,2013-06-27 03:51:00,
2013-06-26 20:56:00,66.4,58.2,29.98,SE,126,4.0,5.0,75,0.00,,,0.00,Wunderground v.1.15,2013-06-27 03:56:00,
2013-06-26 21:01:00,66.5,58.3,29.98,SE,143,1.0,6.0,75,0.00,,,0.00,Wunderground v.1.15,2013-06-27 04:01:00,
2013-06-26 21:06:00,66.4,58.2,29.98,SSE,147,4.0,5.0,75,0.00,,,0.00,Wunderground v.1.15,2013-06-27 04:06:00,
2013-06-26 21:11:00,66.2,58.4,29.98,SSE,147,0.0,5.0,76,0.00,,,0.00,Wunderground v.1.15,2013-06-27 04:11:00,
2013-06-26 21:16:00,65.9,58.1,29.99,SE,146,0.0,1.0,76,0.00,,,0.00,Wunderground v.1.15,2013-06-27 04:16:00,
2013-06-26 21:21:00,65.6,58.2,29.99,SE,143,0.0,1.0,77,0.00,,,0.00,Wunderground v.1.15,2013-06-27 04:21:00,
2013-06-26 21:26:00,65.4,58.4,29.99,SE,140,0.0,1.0,78,0.00,,,0.00,Wunderground v.1.15,2013-06-27 04:26:00,
2013-06-26 21:31:00,65.2,58.2,29.99,SE,140,0.0,2.0,78,0.00,,,0.00,Wunderground v.1.15,2013-06-27 04:31:00,
2013-06-26 21:36:00,65.1,58.4,30.00,SE,141,0.0,1.0,79,0.00,,,0.00,Wunderground v.1.15,2013-06-27 04:36:00,
2013-06-26 21:41:00,65.1,58.4,30.00,SE,144,0.0,2.0,79,0.00,,,0.00,Wunderground v.1.15,2013-06-27 04:41:00,
2013-06-26 21:46:00,64.9,58.2,30.00,SE,144,0.0,2.0,79,0.00,,,0.00,Wunderground v.1.15,2013-06-27 04:46:00,
2013-06-26 21:51:00,64.7,58.0,30.00,SE,144,1.0,2.0,79,0.00,,,0.00,Wunderground v.1.15,2013-06-27 04:51:00,
2013-06-26 21:56:00,64.4,58.1,30.01,SSE,147,0.0,4.0,80,0.00,,,0.00,Wunderground v.1.15,2013-06-27 04:56:00,
2013-06-26 22:01:00,64.3,57.6,30.01,SSE,147,1.0,4.0,79,0.00,,,0.00,Wunderground v.1.15,2013-06-27 05:01:00,
2013-06-26 22:06:00,64.3,57.6,30.01,SE,146,1.0,4.0,79,0.00,,,0.00,Wunderground v.1.15,2013-06-27 05:06:00,
2013-06-26 22:11:00,64.2,57.5,30.01,SSE,148,0.0,5.0,79,0.00,,,0.00,Wunderground v.1.15,2013-06-27 05:11:00,
2013-06-26 22:16:00,64.1,57.1,30.00,SSE,149,2.0,5.0,78,0.00,,,0.00,Wunderground v.1.15,2013-06-27 05:16:00,
2013-06-26 22:21:00,63.8,56.8,30.00,SSE,150,2.0,5.0,78,0.00,,,0.00,Wunderground v.1.15,2013-06-27 05:21:00,
2013-06-26 22:26:00,63.5,56.9,30.01,SSE,148,0.0,2.0,79,0.00,,,0.00,Wunderground v.1.15,2013-06-27 05:26:00,
2013-06-26 22:31:00,63.2,56.6,30.01,SE,124,4.0,4.0,79,0.00,,,0.00,Wunderground v.1.15,2013-06-27 05:31:00,
2013-06-26 22:36:00,63.0,56.7,30.01,East,99,2.0,5.0,80,0.00,,,0.00,Wunderground v.1.15,2013-06-27 05:36:00,
2013-06-26 22:41:00,62.9,56.6,30.01,East,98,2.0,5.0,80,0.00,,,0.00,Wunderground v.1.15,2013-06-27 05:41:00,
2013-06-26 22:46:00,62.9,56.6,30.01,East,98,0.0,3.0,80,0.00,,,0.00,Wunderground v.1.15,2013-06-27 05:46:00,
2013-06-26 22:51:00,62.8,56.5,30.01,East,98,0.0,3.0,80,0.00,,,0.00,Wunderground v.1.15,2013-06-27 05:51:00,
2013-06-26 22:56:00,62.8,56.5,30.01,East,98,0.0,4.0,80,0.00,,,0.00,Wunderground v.1.15,2013-06-27 05:56:00,
2013-06-26 23:01:00,62.8,56.5,30.01,East,98,0.0,4.0,80,0.00,,,0.00,Wunderground v.1.15,2013-06-27 06:01:00,
2013-06-26 23:06:00,62.6,56.0,30.01,East,98,2.0,2.0,79,0.00,,,0.00,Wunderground v.1.15,2013-06-27 06:06:00,
2013-06-26 23:11:00,62.4,56.1,30.02,East,96,2.0,4.0,80,0.00,,,0.00,Wunderground v.1.15,2013-06-27 06:11:00,
2013-06-26 23:16:00,62.2,56.3,30.01,East,95,2.0,4.0,81,0.00,,,0.00,Wunderground v.1.15,2013-06-27 06:16:00,
2013-06-26 23:21:00,62.0,56.1,30.01,East,93,2.0,4.0,81,0.00,,,0.00,Wunderground v.1.15,2013-06-27 06:21:00,
2013-06-26 23:26:00,63.1,59.2,30.02,East,83,3.0,4.0,87,0.00,,,0.00,Wunderground v.1.15,2013-06-27 06:26:00,
2013-06-26 23:31:00,62.9,59.0,30.02,ENE,76,1.0,4.0,87,0.00,,,0.00,Wunderground v.1.15,2013-06-27 06:31:00,
2013-06-26 23:36:00,63.1,58.5,30.01,ENE,75,1.0,3.0,85,0.00,,,0.00,Wunderground v.1.15,2013-06-27 06:36:00,
2013-06-26 23:41:00,61.7,56.5,30.01,ENE,71,3.0,4.0,83,0.00,,,0.00,Wunderground v.1.15,2013-06-27 06:41:00,
2013-06-26 23:46:00,61.4,56.2,30.01,ENE,71,2.0,3.0,83,0.00,,,0.00,Wunderground v.1.15,2013-06-27 06:46:00,
2013-06-26 23:51:00,61.6,56.0,30.01,ENE,71,1.0,3.0,82,0.00,,,0.00,Wunderground v.1.15,2013-06-27 06:51:00,
2013-06-26 23:52:00,61.7,56.1,30.01,ENE,71,1.0,2.0,82,0.00,,,0.00,Wunderground v.1.15,2013-06-27 06:52:00,
2013-06-26 23:53:00,61.8,56.2,30.01,ENE,71,0.0,2.0,82,0.00,,,0.00,Wunderground v.1.15,2013-06-27 06:53:00,
2013-06-26 23:54:00,61.8,56.2,30.01,ENE,71,2.0,2.0,82,0.00,,,0.00,Wunderground v.1.15,2013-06-27 06:54:00,
2013-06-26 23:56:00,61.7,56.1,30.01,ENE,71,2.0,2.0,82,0.00,,,0.00,Wunderground v.1.15,2013-06-27 06:56:00,
2013-06-26 23:59:00,61.5,56.0,30.02,ENE,71,1.0,2.0,82,0.00,,,0.00,Wunderground v.1.15,2013-06-27 06:59:00,